Location: *
(53.4680°S, 165.4114°W)
Time: 03:12:15
(UTC+00:00)

Daily predictions for brighter satellites

Satellite Brightness Start Highest point End
(mag) Time Altitude Azimuth Time Altitude Azimuth Time Altitude Azimuth
Cosmos 2322 3.9 05:36:01 10° SSW 05:41:50 88° WNW 05:47:35 10° NNE
ATLAS CENTAUR R/B 3.4 05:42:05 10° WSW 05:44:51 21° SSW 05:47:40 10° SSE
SMAP 3.2 05:41:16 10° SSE 05:46:03 87° WSW 05:50:46 10° NNW
Cosmos 1758 3.7 05:43:27 10° S 05:47:23 44° ESE 05:51:15 10° NNE
Meteor 2-8 Rocket 4.5 05:41:39 10° N 05:47:44 65° E 05:53:55 10° SSE
Cosmos 2242 Rocket 3.8 05:43:39 10° N 05:48:05 55° E 05:52:36 10° SSE
H-2A R/B 3.0 05:44:33 10° NE 05:48:38 34° ESE 05:52:48 10° S
Cosmos 1992 Rocket 4.0 05:43:45 10° NNW 05:49:03 82° ENE 05:54:24 10° SSE
Cosmos 1908 3.8 05:45:35 10° S 05:49:18 38° ESE 05:52:58 10° NE
Genesis I 4.0 05:46:45 10° N 05:49:53 27° ENE 05:53:02 10° ESE
Cosmos 1607 4.1 05:43:37 10° SW 05:50:06 85° SE 05:56:29 10° NE
Sich 1 Rocket 4.2 05:50:21 10° S 05:54:42 38° ESE 05:58:56 10° NE
Cosmos 1461 4.4 05:52:54 10° WNW 05:57:09 41° SW 06:01:15 10° SE
NOSS 3-2 (C) 4.3 05:48:57 10° NW 05:57:28 75° SW 06:04:44 10° SE
ATLAS 3B R/B 4.0 05:53:50 10° NNE 05:58:26 18° ENE 06:02:55 10° ESE
CZ-4B R/B 2.9 06:01:01 11° E 06:02:49 17° ESE 06:04:53 10° SSE
USA 307 2.9 06:00:23 10° W 06:04:34 85° S 06:08:29 12° E
Cosmos 1833 4.3 05:59:48 10° NNW 06:05:31 88° WSW 06:11:15 10° SSE
USA 276 3.7 06:03:56 10° NNW 06:06:05 18° NNE 06:07:38 13° ENE
Cosmos 1470 3.6 06:02:40 10° SSW 06:06:39 56° W 06:10:34 10° N
ATLAS 5 CENTAUR R/B 2.2 06:00:47 10° SW 06:07:04 76° SE 06:11:58 11° NE
Cosmos 1818 3.6 06:02:52 10° NNW 06:08:09 57° NE 06:13:29 10° SE
Cosmos 2227 Rocket 3.8 06:07:49 11° ENE 06:09:51 13° E 06:12:12 10° ESE
USA 238 DEB 4.3 06:04:12 10° WNW 06:11:50 70° SW 06:19:01 10° SE
USA 238 4.2 06:04:18 10° WNW 06:11:56 70° SW 06:19:07 10° SE
CZ-4 R/B 2.6 06:10:18 10° SE 06:13:29 22° E 06:16:38 10° NE
Cosmos 2333 Rocket 3.7 06:08:53 10° SW 06:14:10 38° WNW 06:19:28 10° N
Radarsat Rocket 4.0 06:08:35 10° SSE 06:14:30 68° ENE 06:20:41 10° N
Cosmos 1980 3.8 06:10:30 10° SSW 06:16:12 62° SE 06:21:35 11° NE
USA 306 2.8 06:12:55 10° W 06:17:06 89° NNW 06:20:30 15° ENE
Cosmos 2219 Rocket 3.3 06:13:26 10° SW 06:18:52 47° WNW 06:24:16 10° N
H-2A R/B 3.7 06:15:51 10° S 06:20:25 36° WSW 06:24:56 10° NW
CZ-4 R/B 4.4 06:16:19 10° SSE 06:20:34 66° ENE 06:24:45 10° N
SL-08 RB Rocket 4.1 06:17:02 10° S 06:21:36 70° WSW 06:26:06 10° NNW
COSMOS 2487 3.4 06:19:13 10° NW 06:22:03 42° WSW 06:24:55 10° SSE
Cosmos 2297 Rocket 3.2 06:19:11 10° NNE 06:23:34 23° ENE 06:27:58 10° SE
Cosmos 2221 Rocket 4.2 06:21:31 10° NNE 06:25:45 37° E 06:30:01 10° SSE
USA 234 3.5 06:22:08 10° ESE 06:28:45 74° SSW 06:35:21 10° W
Cosmos 1953 2.7 06:25:12 10° S 06:29:12 46° ESE 06:32:25 15° NE
SL-27 R/B 2.7 06:27:24 10° NNW 06:30:40 68° WSW 06:34:01 10° SSE
Cosmos 1655 Rocket 4.3 06:24:45 10° S 06:31:03 50° ESE 06:37:01 11° NE
ERBS 2.4 06:28:48 10° WSW 06:31:45 54° SSE 06:33:25 22° E
Okean O Rocket 2.2 06:28:12 10° SSE 06:32:21 36° E 06:36:25 10° NNE
Uosat 12 SS-18 rocket 4.2 06:28:29 10° NW 06:33:12 81° SW 06:37:28 10° SE
Timation 1 Rocket 4.5 06:27:29 10° N 06:33:16 52° ENE 06:39:08 10° SE
COBE Rocket 4.1 06:28:22 10° SSE 06:33:37 62° E 06:38:47 10° N
Cosmos 1674 2.6 06:29:58 10° N 06:33:43 89° E 06:37:30 10° SSE
Cosmos 1378 Rocket 4.2 06:31:40 10° NNE 06:35:34 33° E 06:39:32 10° SSE
Cosmos 2237 Rocket 2.2 06:31:11 10° SSW 06:37:00 78° ESE 06:41:48 15° NE
HJ-1C 3.5 06:34:33 10° SSE 06:37:40 46° E 06:40:45 10° N
USA 308 2.8 06:35:18 10° W 06:39:31 85° NNW 06:42:05 23° ENE
Cosmos 1763 Rocket 4.5 06:36:05 10° NNE 06:40:22 26° E 06:44:43 10° SE
Cosmos 1300 Rocket 4.5 06:38:06 10° SSW 06:42:25 50° W 06:46:39 10° N
Okean 1 Rocket 3.4 06:39:29 10° S 06:43:46 45° ESE 06:46:20 21° NE
MOS 1-B 4.4 06:38:09 10° SSE 06:43:58 61° ENE 06:49:45 10° N
Cosmos 724 4.4 06:39:09 10° SW 06:45:15 80° NW 06:49:56 17° NE
In-Cosmos 22 4.4 06:40:40 10° NNW 06:46:12 75° WSW 06:51:57 10° SSE
COSMOS 2428 3.8 06:41:02 10° SW 06:46:28 44° WNW 06:51:50 10° N
Cosmos 1455 Rocket 4.4 06:43:39 10° S 06:47:13 23° ESE 06:48:26 20° E
YAOGAN 1 2.6 06:44:03 10° SSE 06:48:27 62° ENE 06:52:47 10° N
USA 186 3.6 06:47:04 10° SE 06:48:22 17° ESE 06:48:22 17° ESE
Okean 2 Rocket 3.1 06:46:12 10° SSW 06:50:43 84° W 06:55:12 10° N
SJ 16-02 3.5 06:48:10 10° SW 06:51:53 26° W 06:55:33 10° NNW
Cosmos 1300 2.7 06:48:41 10° S 06:52:32 61° ESE 06:54:37 25° NNE
Cosmos 2266 Rocket 4.0 06:46:37 10° S 06:52:53 71° ESE 06:58:46 12° NNE
Alouette 2 Rocket 4.1 06:48:37 10° NNW 06:52:57 56° WSW 06:56:35 10° S
Cosmos 220 Rocket 4.1 06:51:49 10° SSW 06:56:18 62° ESE 06:58:33 28° NE
Meteor 2-17 Rocket 4.5 06:53:48 10° S 06:59:56 64° ESE 07:04:20 19° NNE
Cosmos 2219 4.2 07:00:23 25° ENE 07:00:39 25° ENE 07:05:11 10° SE
CZ-4C R/B 3.5 06:54:15 10° N 07:01:16 32° ENE 07:07:23 10° ESE
CZ-4B R/B 3.1 06:55:57 10° SSE 07:01:25 74° ENE 07:06:46 10° N
Okean 2 3.8 07:00:07 10° NNW 07:04:15 64° WSW 07:08:25 10° S
CSL-04 Rocket 4.4 07:00:57 10° SSE 07:05:46 31° E 07:07:01 28° ENE
USA 305 2.9 07:03:22 10° WSW 07:07:31 64° NNW 07:08:59 37° NE
PAYLOAD B 4.4 07:01:54 10° SSE 07:07:38 78° WSW 07:13:16 10° NNW
Cosmos 1626 3.8 07:09:19 10° NW 07:12:46 36° WSW 07:16:16 10° S
Cosmos 1455 3.5 07:09:46 10° S 07:12:56 25° ESE 07:12:56 25° ESE
Resurs 01 Rocket 3.7 07:11:20 10° SE 07:12:27 13° ESE 07:12:27 13° ESE
Cosmos 1271 Rocket 2.6 07:10:23 10° SSW 07:14:15 83° WNW 07:15:56 32° N
Cosmos 2279 Rocket 4.3 07:08:19 10° NNW 07:14:36 70° WSW 07:20:57 10° S
SL-16 R/B 2.4 07:11:34 10° SSW 07:17:18 61° SE 07:19:50 33° ENE
Cosmos 2151 Rocket 4.4 07:13:43 10° SSW 07:18:11 52° W 07:22:25 11° N
IGS 5A 3.8 07:15:30 10° SSE 07:19:33 41° E 07:19:44 41° ENE
APEX 4.4 07:16:22 10° SW 07:21:04 45° WNW 07:23:20 23° N
Lacrosse 5 rocket 1.0 07:18:23 10° NW 07:22:03 62° NNE 07:22:29 56° ENE
Cosmos 1937 Rocket 3.6 07:17:31 10° SSW 07:22:51 64° ESE 07:24:50 37° NE
Meteor 2-10 Rocket 3.7 07:17:48 10° SSW 07:23:04 75° W 07:26:59 19° N
H-2A R/B 3.5 07:20:16 10° NNW 07:24:31 39° W 07:28:51 10° SSW
ATLAS CENTAUR R/B 3.7 07:22:34 10° SSW 07:24:45 15° S 07:26:58 10° SE
Genesis I 4.0 07:23:30 10° WNW 07:27:04 48° SW 07:30:41 10° SE
Cosmos 990 Rocket 4.2 07:22:19 10° SSW 07:27:31 65° WNW 07:30:22 26° N
Aureole 3 Rocket 2.6 07:25:25 16° NNW 07:28:15 74° WSW 07:31:27 10° S
CZ-2C R/B 3.6 07:30:05 43° NNE 07:31:33 78° ESE 07:36:07 10° SSW
CENTAUR R/B 3.9 07:25:37 10° WSW 07:32:02 35° S 07:37:28 10° SE
Cosmos 44 3.8 07:26:57 10° SW 07:32:14 54° SE 07:33:57 37° E
CZ-4B R/B 2.4 07:33:06 32° NW 07:33:48 38° W 07:36:42 10° SSW
Okean-O 2.8 07:31:15 10° SSE 07:35:40 50° E 07:35:47 49° ENE
OBJECT-B 2.2 07:34:30 10° S 07:35:46 24° S 07:35:46 24° S
Resurs 1-3 4.0 07:33:54 10° SSE 07:37:52 44° E 07:37:52 44° E
USA 276 4.2 07:38:21 10° WNW 07:39:23 18° NW 07:39:23 18° NW
Cosmos 1674 Rocket 4.1 07:39:22 10° NNW 07:43:50 60° WSW 07:48:21 10° S
USA 307 3.1 07:39:51 10° WSW 07:43:53 50° NNW 07:44:03 50° NNW
ATLAS 3B R/B 2.7 07:40:47 10° NNW 07:48:03 65° NE 07:54:54 10° SE
CZ-4 R/B 2.3 07:44:46 10° S 07:48:38 47° WSW 07:52:31 10° NW
Cosmos 1898 Rocket 3.7 07:44:06 10° SSW 07:49:20 66° WNW 07:51:09 39° N
Cosmos 1943 4.0 07:45:05 10° SSW 07:50:26 39° SE 07:51:55 33° ESE
ATLAS 5 CENTAUR R/B 3.5 07:46:16 10° WSW 07:51:05 28° WNW 07:53:24 19° NNW
Cosmos 468 Rocket 3.9 07:48:42 25° NNW 07:51:54 73° ENE 07:57:17 10° SSE
Cosmos 2227 Rocket 2.1 07:49:16 24° N 07:52:46 63° ENE 07:58:27 10° SE
Cosmos 1544 Rocket 4.1 07:49:08 10° S 07:53:15 44° ESE 07:53:15 44° ESE
SJ-6B 2.7 07:52:00 10° SSE 07:56:01 83° WSW 07:56:12 79° NW
USA 306 3.7 07:52:22 10° W 07:56:02 39° NW 07:56:02 39° NW
Cosmos 1025 Rocket 3.6 08:01:57 45° SE 08:01:57 45° SE 08:05:26 10° SSE
Cosmos 540 Rocket 3.3 08:03:34 65° NE 08:04:00 69° ENE 08:09:14 10° SSE
Cosmos 1238 Rocket 4.2 08:00:01 10° SSW 08:05:51 54° W 08:08:13 30° NNW
ERBS 4.4 08:03:36 10° WSW 08:04:52 21° W 08:04:52 21° W
Cosmos 2297 Rocket 2.3 08:01:20 10° NW 08:07:02 78° WSW 08:12:47 10° SSE
Iridium 2 4.1 08:03:54 10° S 08:07:26 62° WSW 08:07:26 62° WSW
Cosmos 1975 Rocket 3.4 08:09:16 52° SE 08:09:16 52° SE 08:12:48 10° SSE
Okean O Rocket 3.2 08:04:37 10° S 08:08:40 34° WSW 08:12:39 10° NW
USA 234 3.5 08:07:57 29° E 08:11:32 68° S 08:18:07 10° WSW
Cosmos 841 Rocket 4.0 08:14:37 45° ESE 08:14:37 45° ESE 08:18:33 10° SSE
IRS-1C Rocket 4.0 08:08:59 10° SSE 08:14:24 85° ENE 08:15:31 58° N
CSL-04 Debris 4.3 08:10:03 10° SSE 08:15:39 78° WSW 08:18:26 31° NNW
Cosmos 2228 4.5 08:12:12 10° S 08:15:08 27° SE 08:15:08 27° SE
Cosmos 371 Rocket 3.4 08:12:30 10° SSW 08:17:16 62° SE 08:17:16 62° SE
Cosmos 972 Rocket 4.0 08:13:19 10° SSW 08:18:38 81° ESE 08:19:12 71° NE
USA 308 4.2 08:14:51 10° W 08:17:40 30° WNW 08:17:40 30° WNW
SPOT 1/Viking Rocket 4.0 08:13:51 10° SSE 08:18:15 48° ESE 08:18:15 48° ESE
Cosmos 2237 Rocket 4.1 08:16:01 10° SW 08:20:30 24° WNW 08:23:39 15° NW
Cosmos 1763 Rocket 3.9 08:16:31 10° NW 08:21:46 64° WSW 08:27:09 10° SSE
USA 186 3.7 08:19:03 10° S 08:21:32 30° SW 08:21:32 30° SW
Meteor 1-24 Rocket 3.7 08:21:42 58° N 08:22:57 85° ENE 08:29:02 10° SSE
Cosmos 1455 Rocket 3.6 08:21:01 10° SSW 08:25:22 54° W 08:25:33 53° WNW
Cosmos 1553 Rocket 4.0 08:25:22 62° NE 08:26:13 70° E 08:32:35 10° SSE
MetOp-A 4.0 08:21:24 10° SSE 08:25:30 59° SE 08:25:30 59° SE
NOSS 3-1 (C) 4.2 08:19:19 10° NNW 08:27:58 55° NE 08:35:27 10° SE
Cosmos 332 Rocket 4.5 08:25:49 10° SSW 08:30:18 45° SE 08:30:18 45° SE
H-2A R/B 3.2 08:27:27 10° SSE 08:31:00 53° SSE 08:31:00 53° SSE
Cosmos 372 Rocket 4.5 08:29:17 10° SSW 08:34:25 51° WNW 08:34:57 49° NW
Landsat 7 4.2 08:35:49 10° S 08:40:34 61° WSW 08:41:02 57° W
Cosmos 1125 Rocket 3.9 08:38:22 10° SSW 08:43:25 56° SE 08:43:25 56° SE
Cosmos 2219 3.3 08:42:08 40° NW 08:44:16 75° SW 08:50:02 10° SSE
CSL-04 Rocket 4.3 08:41:05 10° S 08:46:21 52° WSW 08:48:39 31° NW
Cosmos 1455 3.9 08:45:00 10° SSW 08:47:40 31° WSW 08:47:40 31° WSW
CZ-4C R/B 2.7 08:41:19 10° NW 08:49:30 90° NE 08:56:13 10° SE
Resurs 01 Rocket 2.4 08:46:41 10° SSE 08:50:00 48° S 08:50:00 48° S
Meteor 2-12 Rocket 4.4 08:46:22 10° SSW 08:52:36 75° W 08:53:15 68° NW
Meteor 2-5 Rocket 4.3 08:50:46 38° NW 08:52:46 57° WSW 08:58:37 10° S
Cosmos 2263 Rocket 3.4 08:55:43 30° SE 08:55:43 30° SE 08:58:38 10° SE
Ariane Rocket 3.8 08:49:10 10° SSE 08:52:43 42° SE 08:52:43 42° SE
Lacrosse 5 rocket 3.8 08:57:24 10° W 08:58:02 14° W 08:58:02 14° W
SL-16 R/B 3.4 08:56:07 10° SW 09:01:08 32° WNW 09:01:43 31° WNW
Cosmos 2082 3.9 09:04:18 66° SSE 09:04:18 66° SSE 09:09:12 10° SSE
Terra 3.8 08:59:18 10° SSE 09:01:05 20° SE 09:01:05 20° SE
ATLAS CENTAUR R/B 3.4 09:01:22 10° SSW 09:03:23 22° S 09:03:23 22° S
Cosmos 1932 4.5 09:03:44 10° SW 09:09:39 69° WNW 09:09:39 69° WNW
SPOT 5 4.1 09:09:26 10° SSE 09:12:48 37° SE 09:12:48 37° SE
Cosmos 1745 Rocket 4.3 09:15:42 10° SSW 09:21:53 57° W 09:22:19 56° WNW
CENTAUR R/B 3.4 09:18:05 10° SW 09:24:04 39° SSE 09:25:32 33° SE
S3M 4.1 09:34:32 68° WSW 09:34:32 68° WSW 09:40:46 10° S
Cosmos 1943 3.9 09:29:10 10° SW 09:33:43 48° WSW 09:33:43 48° WSW
NOSS 3-1 (A) 4.0 09:37:10 71° ENE 09:37:10 71° ENE 09:44:18 10° SE
Cosmos 2227 Rocket 3.6 09:31:59 10° WNW 09:37:13 35° SW 09:42:29 10° SSE
ATLAS 3B R/B 3.4 09:32:00 10° WNW 09:39:03 52° SSW 09:45:43 10° SE
Cosmos 1603 4.4 09:35:55 10° SW 09:40:31 49° WSW 09:40:31 49° WSW
NOSS 3-2 (A) 4.3 09:38:05 10° SW 09:45:04 48° SSE 09:46:25 42° ESE
CZ-2D R/B 4.1 09:45:17 18° SE 09:45:36 18° SE 09:49:10 10° S
Resurs 1-4 Rocket 4.1 09:45:42 19° SE 09:46:02 19° SE 09:49:46 10° S
Cosmos 1833 Rocket 4.2 09:42:57 10° SSW 09:47:52 29° SE 09:48:36 28° SE
Cosmos 2297 Rocket 4.3 09:47:24 10° W 09:52:01 25° SSW 09:56:39 10° SSE
USA 234 3.3 09:55:16 71° W 09:55:16 71° W 10:01:11 10° WSW
Cosmos 2154 Rocket 4.5 09:48:42 10° S 09:54:09 53° SE 09:54:09 53° SE
SPOT 3 Rocket 4.4 09:57:25 10° S 10:01:28 48° SSW 10:01:28 48° SSW
Cosmos 2285 Rocket 4.5 10:03:30 55° WSW 10:04:02 57° WSW 10:10:29 10° SSE
Cosmos 2082 Rocket 4.3 10:00:22 10° SSW 10:04:49 22° SSE 10:07:20 17° ESE
Timation 2 Rocket 4.3 10:07:14 62° S 10:07:14 62° S 10:12:37 10° SSE
Cosmos 2184 Rocket 4.2 10:02:41 10° S 10:08:12 68° S 10:08:12 68° S
NOSS 3-1 (C) 4.3 10:10:25 10° WNW 10:19:06 65° SW 10:26:21 10° SE
Cosmos 1844 Rocket 4.2 10:22:33 29° SE 10:22:33 29° SE 10:25:24 10° SE
Resurs 01 Rocket 4.2 10:24:29 10° SSW 10:27:00 15° SW 10:27:33 15° WSW
ADEOS II 3.9 10:33:51 24° SE 10:33:55 24° SE 10:38:08 10° S
ATLAS CENTAUR R/B 4.3 10:17:54 10° W 10:35:11 73° S 10:41:57 12° E
ERS-1 Rocket 4.3 10:30:54 10° S 10:34:30 37° SSW 10:34:30 37° SSW
Cosmos 2263 Rocket 3.2 10:37:20 41° SW 10:37:20 41° SW 10:42:38 10° SSE
CZ-4C R/B 3.7 10:31:33 10° W 10:38:45 43° SSW 10:44:39 10° SE
Terra 3.4 10:36:57 10° S 10:39:58 33° SSW 10:39:58 33° SSW
ADEOS Rocket 3.6 10:42:00 10° SSE 10:48:20 58° ESE 10:48:20 58° ESE
USA 281 3.6 10:42:35 10° SSE 10:47:54 53° ESE 10:47:54 53° ESE
USA 229 DEB 3.9 10:58:24 73° WSW 10:58:42 74° SW 11:05:53 10° SE
USA 229 3.9 10:58:31 73° WSW 10:58:48 74° SW 11:05:59 10° SE
USA 267 3.9 10:54:19 10° ESE 10:58:44 44° E 10:58:44 44° E
Lacrosse 5 4.1 11:09:09 18° ESE 11:09:09 18° ESE 11:10:28 10° ESE
NPP 4.5 11:15:32 48° SSE 11:15:32 48° SSE 11:19:41 10° S
CENTAUR R/B 3.5 11:09:16 10° SW 11:12:41 34° SW 11:12:41 34° SW
Cosmos 2341 Rocket 4.3 11:11:29 10° SSW 11:16:41 62° SSW 11:16:41 62° SSW
CZ-2D R/B 3.0 11:26:35 45° S 11:26:35 45° S 11:30:15 10° SSW
Resurs 1-4 Rocket 3.0 11:26:46 47° S 11:26:46 47° S 11:30:34 10° SSW
ATLAS 3B R/B 4.1 11:24:46 10° WSW 11:31:08 35° S 11:37:11 10° ESE
Cosmos 1833 Rocket 3.7 11:26:45 10° SSW 11:30:16 39° SW 11:30:16 39° SW
NOSS 3-2 (C) 3.8 11:26:54 10° SW 11:32:40 60° SSW 11:32:40 60° SSW
NOSS 3-2 (A) 4.5 11:29:36 10° SW 11:33:46 38° WSW 11:33:46 38° WSW
IDEFIX/ARIANE 42P 3.4 11:46:15 49° S 11:46:15 49° S 11:50:13 10° SSW
SeaSat 1 4.5 11:42:12 10° SE 11:44:39 20° E 11:44:39 20° E
USA 238 DEB 3.7 11:41:09 10° SW 11:47:28 72° SSW 11:47:28 72° SSW
USA 238 3.7 11:41:15 10° SW 11:47:38 73° SSW 11:47:38 73° SSW
Cosmos 2082 Rocket 2.7 11:44:17 10° SSW 11:49:09 57° S 11:49:09 57° S
Cosmos 2366 rocket 4.3 11:44:45 10° SSW 11:50:10 61° SW 11:50:10 61° SW
ALOS 2 4.3 11:49:51 10° SSE 11:52:17 31° S 11:52:17 31° S
